Fairbanks, AK

1:36 AM AKST on December 11, 2019 (GMT -0900)
Fairbanks International

Weather History for PAFA - May, 2019

Change the Weather History Date:

Sunday, May 5, 2019

  Actual Average Record
Temperature  
Mean Temperature 40 °F 45 °F  
Max Temperature 49 °F 56 °F 70 °F (1960)
Min Temperature 30 °F 33 °F 11 °F (1945)
Degree Days  
Heating Degree Days 25 20  
Month to date heating degree days 102 106  
Since 1 July heating degree days 11364 13130  
Cooling Degree Days 0 0  
Month to date cooling degree days 0 0  
Year to date cooling degree days 0 0  
Moisture  
Dew Point 18 °F    
Average Humidity 41    
Maximum Humidity 59    
Minimum Humidity 16    
Precipitation  
Precipitation 0.00 in 0.02 in 0.27 in (1941)
Month to date precipitation 0.07 0.08  
Year to date precipitation 2.55 1.64  
Snow  
Snow 0.00 in 0.10 in 2.90 in (2001)
Month to date snowfall T 0.3  
Since 1 July snowfall 57.5 64.4  
Snow Depth 0.00 in    
Sea Level Pressure  
Sea Level Pressure 29.85 in    
Wind  
Wind Speed 6 mph (North)    
Max Wind Speed 15 mph    
Max Gust Speed -    
Visibility 10 miles    
Events      
T = Trace of Precipitation, MM = Missing Value Source: NWS Daily Summary

Daily Weather History Graph

Daily Weather History Graph

Search for Another Location

Airport or City:

Astronomy

May. 05, 2019 Rise Set
Actual Time 5:04 AM AKDT 10:34 PM AKDT
Civil Twilight 3:43 AM AKDT 11:57 PM AKDT
Nautical Twilight Sun does not rise Sun does not rise
Astronomical Twilight Sun does not rise Sun does not rise
Moon 6:13 AM AKDT (5/5) 11:40 PM AKDT (5/5)
Length of Visible Light 20h 13m
Length of Day
17h 30m
New Moon, 1% of the Moon is Illuminated
May 5
New Moon
May 11
First Quarter
May 18
Full
May 26
Last Quarter
Jun 3
New

Hourly Weather History & Observations

Time (AKDT) Temp. Windchill Dew Point Humidity Pressure Visibility Wind Dir Wind Speed Gust Speed Precip Events Conditions
12:53 AM 34.0 °F 26.6 °F 19.0 °F 54% 30.04 in 10.0 mi North 9.2 mph - N/A   Scattered Clouds
1:53 AM 33.1 °F 26.9 °F 19.0 °F 56% 30.03 in 10.0 mi North 6.9 mph - N/A   Scattered Clouds
2:53 AM 33.1 °F 26.9 °F 18.0 °F 54% 30.02 in 10.0 mi North 6.9 mph - N/A   Mostly Cloudy
3:53 AM 32.0 °F 25.6 °F 18.0 °F 56% 30.00 in 10.0 mi NNW 6.9 mph - N/A   Mostly Cloudy
4:53 AM 30.9 °F 25.2 °F 18.0 °F 59% 29.99 in 10.0 mi NNW 5.8 mph - N/A   Scattered Clouds
5:53 AM 30.9 °F 26.2 °F 17.1 °F 57% 29.98 in 10.0 mi North 4.6 mph - N/A   Partly Cloudy
6:53 AM 33.1 °F 26.9 °F 18.0 °F 54% 29.96 in 10.0 mi North 6.9 mph - N/A   Partly Cloudy
7:53 AM 36.0 °F 32.1 °F 18.0 °F 48% 29.96 in 10.0 mi North 4.6 mph - N/A   Partly Cloudy
8:53 AM 37.0 °F - 19.0 °F 48% 29.93 in 10.0 mi Calm Calm - N/A   Partly Cloudy
9:53 AM 39.0 °F - 19.0 °F 45% 29.91 in 10.0 mi Calm Calm - N/A   Partly Cloudy
10:53 AM 41.0 °F - 18.0 °F 40% 29.89 in 10.0 mi Calm Calm - N/A   Partly Cloudy
11:53 AM 44.1 °F - 19.0 °F 37% 29.87 in 10.0 mi Calm Calm - N/A   Partly Cloudy
12:53 PM 44.1 °F 42.5 °F 18.0 °F 35% 29.85 in 10.0 mi Variable 3.5 mph - N/A   Partly Cloudy
1:53 PM 46.0 °F - 18.0 °F 33% 29.83 in 10.0 mi Calm Calm - N/A   Scattered Clouds
2:53 PM 48.0 °F - 17.1 °F 29% 29.80 in 10.0 mi NNE 4.6 mph - N/A   Scattered Clouds
3:53 PM 46.9 °F - 15.1 °F 28% 29.77 in 10.0 mi ESE 4.6 mph - N/A   Mostly Cloudy
4:53 PM 48.0 °F - 14.0 °F 26% 29.75 in 10.0 mi Calm Calm - N/A   Mostly Cloudy
5:53 PM 48.0 °F - 14.0 °F 26% 29.73 in 10.0 mi Calm Calm - N/A   Mostly Cloudy
6:53 PM 48.0 °F - 16.0 °F 28% 29.70 in 10.0 mi NE 4.6 mph - N/A   Mostly Cloudy
7:53 PM 46.9 °F - 19.9 °F 34% 29.69 in 10.0 mi NE 12.7 mph - N/A   Mostly Cloudy
8:53 PM 44.1 °F 37.1 °F 23.0 °F 43% 29.68 in 10.0 mi NNE 15.0 mph - N/A   Mostly Cloudy
9:53 PM 42.1 °F 34.9 °F 23.0 °F 47% 29.68 in 10.0 mi NNE 13.8 mph - N/A   Overcast
10:53 PM 39.9 °F 33.4 °F 21.9 °F 49% 29.67 in 10.0 mi North 10.4 mph - N/A   Mostly Cloudy
11:53 PM 39.0 °F 32.3 °F 21.9 °F 50% 29.66 in 10.0 mi North 10.4 mph - N/A   Overcast